Location: Home
(42.5358°N, 72.7383°W)
Time: 15:03:13
(UTC-05:00)

Explorer 11/Cluster Stage 4 - Pass Details

Date: 17 December 2025
Orbit: 463 x 1179 km, 28.8° (Epoch: 21 January)

Event Time Altitude Azimuth Distance (km) Brightness Sun altitude
Rises 19:57:09 0° 255° (WSW) 4,024 11.0 -39.1°
Reaches altitude 10° 20:00:43 10° 242° (WSW) 3,004 10.1 -39.8°
Enters shadow 20:04:28 21° 214° (SW) 2,227 9.0 -40.5°
